Torna al catalogo

STARLINK-2519

AttivoComunicazioniVLEO
NORAD 48305·PAYLOAD·🇺🇸 United States

Lanciato Apr 29, 2021 da Cape Canaveral Space Force Station

Loading…

Prossimi Passaggi (prossime 24 ore)

TLE

AggiornatoSource: CelesTrak SupGP

Epoca: Sep 14, 2026, 21:02 UTC

1 48305C 21036AF  26257.87687500  .00004698  00000+0  15105-3 0  2573
2 48305  53.1582 299.0559 0001315  82.8882 138.7006 15.31701172    15

Traccia STARLINK-2519 in tempo reale con AllMySat

Download on the App Store